Regional Weather Roundup
Issued by NWS

Home | Current Version | Previous Version | Text Only | Print | Product List | Glossary On
Versions: 1 2 3 4 5 6 7 8 9 10 11 12 13 14 15 16 17 18 19 20 21 22 23 24 25 26 27 28 29 30 31 32 33 34 35 36 37 38 39 40 41 42 43 44 45 46 47 48 49 50
000
ASUS44 KLIX 031911
RWRLA
LOUISIANA WEATHER ROUNDUP
NATIONAL WEATHER SERVICE NEW ORLEANS LA
200 PM CDT WED JUN 03 2015

NOTE: "FAIR" INDICATES FEW OR NO CLOUDS BELOW 12,000 FEET WITH NO
      SIGNIFICANT WEATHER AND/OR OBSTRUCTIONS TO VISIBILITY.
      SKY/WX - SKY CONDITION AND SIGNIFICANT WEATHER.
      TMP - AIR TEMPERATURE.    DP   - DEWPOINT TEMPERATURE.
      RH  - RELATIVE HUMIDITY.  PRES - PRESSURE.
      HX  - HEAT INDEX.         WCI  - WIND CHILL INDEX.

*  THESE STATIONS ARE NOT NWS OR FAA STATIONS AND ARE NOT UNDER
   NWS QUALITY CONTROL.

LAZ040-048-061>063-065-066-069-032000-
SOUTHEAST LOUISIANA

CITY           SKY/WX    TMP DP  RH WIND       PRES   REMARKS
N.O. AUDUBON     N/A     90  67  46 MISG        N/A
N.O. INTL ARPT MOSUNNY   87  64  46 N7        29.92F
N.O. LAKEFRONT MOSUNNY   89  67  47 N6        29.93F
SLIDELL        PTSUNNY   86  66  51 CALM      29.92F
BATON ROUGE    SUNNY     87  65  47 MISG      29.93F
BOOTHVILLE     SUNNY     87  65  47 VRB3      29.93F
BELLE CHASSE   PTSUNNY   83  66  56 NW3       29.92S
BOGALUSA*        N/A     87  64  46 NE7       29.95F
GALLIANO*      MOCLDY    87  61  41 CALM      29.93S
NEW ROADS*     FAIR     N/A N/A N/A N3        29.94F
GONZALES*      CLOUDY    86  67  52 N5        29.92F
HAMMOND*       SUNNY     88  61  40 CALM      29.94F
HOUMA*         MOSUNNY   86  64  48 NE5       29.92F
PORT FOURCHON* CLEAR     84  66  54 S9        29.93F

$$

LAZ041-044-053-054-032000-
SOUTHWEST LOUISIANA

CITY           SKY/WX    TMP DP  RH WIND       PRES   REMARKS
LAKE CHARLES   PTSUNNY   87  65  47 CALM      29.93F
LAFAYETTE      PTSUNNY   86  66  51 NE5       29.93F
PATTERSON      SUNNY     86  63  45 N6        29.94F
SALT POINT       N/A     85  72  65 VRB5      29.91F
NEW IBERIA     PTSUNNY   87  68  52 NE8       29.94F
CHENAULT AIRPK NOT AVBL

$$

LAZ027-028-032000-
CENTRAL LOUISIANA

CITY           SKY/WX    TMP DP  RH WIND       PRES   REMARKS
FORT POLK      MOSUNNY   85  64  49 VRB7      29.94F
ALEXANDRIA INT MOSUNNY   84  63  49 NE6       29.94F
ALEXANDRIA     SUNNY     84  59  42 MISG      29.96F

$$

LAZ001-002-032000-
NORTHWEST LOUISIANA

CITY           SKY/WX    TMP DP  RH WIND       PRES   REMARKS
SHREVEPORT     MOSUNNY   85  64  49 S7        29.96F
BARKSDALE AFB  MOSUNNY   82  63  51 VRB2      29.96F
DTN SHREVEPORT SUNNY     84  63  49 CALM      29.96F

$$

LAZ014-016-032000-
NORTHEAST LOUISIANA

CITY           SKY/WX    TMP DP  RH WIND       PRES   REMARKS
MONROE         MOSUNNY   84  64  50 VRB6      29.98F
TALLULAH       SUNNY     84  61  45 N9        29.97F

$$




USA.gov is the U.S. government's official web portal to all federal, state and local government web resources and services.